Simultaneous Nadir Overpasses (SNOs) Predictions

Prediction of SNOs between AQUA and NOAA-19 Satellite Orbit:

Table of predicted SNOs for the next 14.0 days since TLE Epoch: 4/24/2021
Index Date (AQUA) Time (AQUA) Lat,Lon (AQUA) SZA (AQUA ) Date (NOAA-19) Time (NOAA-19) Lat,Lon (NOAA-19) SZA (NOAA-19 ) Distance(km) Time Diff (sec)
1 04/25/2021 13:10:23 -78.94, 139.05 113.58 04/25/2021 13:09:30 -78.93, 139.07 113.57 1.88 53
2 04/25/2021 13:59:50 78.94, -53.29 66.41 04/25/2021 14:00:28 78.97, -53.35 66.43 3.37 38
3 04/27/2021 19:33:33 -78.94, 43.28 114.31 04/27/2021 19:33:40 -78.96, 43.37 114.30 2.83 7
4 04/30/2021 01:07:17 78.95, 139.79 65.01 04/30/2021 01:06:52 78.92, 139.88 64.99 3.40 25
5 04/30/2021 01:56:43 -78.94, -52.52 115.02 04/30/2021 01:57:51 -78.96, -52.61 115.02 2.64 68
6 05/02/2021 06:40:59 -78.91,-123.39 115.73 05/02/2021 06:40:03 -78.91,-123.45 115.70 1.23 56
7 05/02/2021 07:30:27 78.96, 43.95 64.34 05/02/2021 07:31:03 78.94, 44.03 64.30 2.87 36
8 05/04/2021 13:04:09 -78.91, 140.77 116.38 05/04/2021 13:04:13 -78.93, 140.80 116.37 2.27 4
9 05/06/2021 18:37:52 78.91,-122.62 62.98 05/06/2021 18:37:26 78.91,-122.58 62.99 1.06 26



Historial Predications of SNOs between AQUA and NOAA-19
